Burleson, TX

2:07 PM CST on January 20, 2017 (GMT -0600)
Fort Worth Spinks

Weather History for KFWS - September, 2013

Change the Weather History Date:

Wednesday, September 4, 2013

  Actual Average (KNFW) Record (KNFW)
Temperature  
Mean Temperature 84 °F -  
Max Temperature 100 °F 89 °F 107 °F (1998)
Min Temperature 68 °F 71 °F 60 °F (2010)
Cooling Degree Days 19    
Growing Degree Days 34 (Base 50)    
Moisture  
Dew Point 61 °F    
Average Humidity 51    
Maximum Humidity 76    
Minimum Humidity 22    
Precipitation  
Precipitation 0.00 in - - ()
Sea Level Pressure  
Sea Level Pressure 30.01 in    
Wind  
Wind Speed 3 mph (ENE)    
Max Wind Speed 17 mph    
Max Gust Speed -    
Visibility 10 miles    
Events      
Averages and records for this station are not official NWS values.
T = Trace of Precipitation, MM = Missing Value Source: NWS Daily Summary

Daily Weather History Graph

Daily Weather History Graph

Search for Another Location

Airport or City:

Trip Planner

Search our weather history database for the weather conditions in past years. The results will help you decide how hot, cold, wet, or windy it might be!

Date:

Astronomy

Sep. 04, 2013 Rise Set
Actual Time 7:06 AM CDT 7:49 PM CDT
Civil Twilight 6:41 AM CDT 8:14 PM CDT
Nautical Twilight 6:11 AM CDT 8:43 PM CDT
Astronomical Twilight 5:41 AM CDT 9:13 PM CDT
Moon 6:19 AM CDT (9/4) 7:11 PM CDT (9/4)
Length of Visible Light 13h 33m
Length of Day
12h 43m
Waning Crescent, 1% of the Moon is Illuminated
Sep 4
Waning Crescent
Sep 5
New
Sep 12
First Quarter
Sep 19
Full
Sep 26
Last Quarter

Hourly Weather History & Observations

Time (CDT) Temp. Heat Index Dew Point Humidity Pressure Visibility Wind Dir Wind Speed Gust Speed Precip Events Conditions
12:15 AM 70.9 °F - 56.7 °F 61% 29.97 in 10.0 mi Calm Calm - N/A   Clear
12:35 AM 70.7 °F - 57.2 °F 62% 29.97 in 10.0 mi Calm Calm - N/A   Clear
12:55 AM 70.7 °F - 58.6 °F 66% 29.97 in 10.0 mi Calm Calm - N/A   Clear
1:15 AM 69.1 °F - 57.9 °F 68% 29.97 in 10.0 mi Calm Calm - N/A   Clear
1:35 AM 70.0 °F - 59.2 °F 68% 29.97 in 10.0 mi SW 3.5 mph - N/A   Clear
1:55 AM 75.4 °F - 59.9 °F 58% 29.97 in 10.0 mi West 5.8 mph - N/A   Clear
2:15 AM 77.4 °F - 59.4 °F 54% 29.97 in 10.0 mi NW 5.8 mph - N/A   Clear
2:35 AM 75.2 °F - 59.2 °F 57% 29.97 in 10.0 mi Calm Calm - N/A   Clear
2:55 AM 75.7 °F - 59.2 °F 56% 29.97 in 10.0 mi WNW 4.6 mph - N/A   Clear
3:15 AM 74.8 °F - 61.2 °F 62% 29.97 in 10.0 mi NW 4.6 mph - N/A   Clear
3:35 AM 74.8 °F - 60.8 °F 62% 29.97 in 10.0 mi North 5.8 mph - N/A   Clear
3:55 AM 72.7 °F - 60.3 °F 65% 29.97 in 10.0 mi Calm Calm - N/A   Clear
4:15 AM 74.3 °F - 61.0 °F 63% 29.98 in 10.0 mi NNW 5.8 mph - N/A   Clear
4:35 AM 75.6 °F - 61.3 °F 61% 29.98 in 10.0 mi North 3.5 mph - N/A   Clear
4:55 AM 73.0 °F - 61.3 °F 67% 29.98 in 10.0 mi Calm Calm - N/A   Clear
5:15 AM 70.2 °F - 60.8 °F 72% 29.99 in 10.0 mi Calm Calm - N/A   Clear
5:35 AM 68.4 °F - 60.3 °F 75% 30.00 in 10.0 mi Calm Calm - N/A   Clear
5:55 AM 70.9 °F - 61.3 °F 72% 30.00 in 10.0 mi Calm Calm - N/A   Clear
6:15 AM 68.4 °F - 60.6 °F 76% 30.02 in 10.0 mi Calm Calm - N/A   Clear
6:49 AM 71.6 °F - 62.6 °F 73% 30.02 in 10.0 mi Calm Calm - N/A   Clear
7:49 AM 73.4 °F - 64.4 °F 73% 30.03 in 10.0 mi Calm Calm - N/A   Clear
8:54 AM 80.6 °F 82.7 °F 66.2 °F 61% 30.04 in 10.0 mi Calm Calm - N/A   Clear
9:50 AM 84.2 °F 85.6 °F 64.4 °F 51% 30.05 in 10.0 mi Calm Calm - N/A   Clear
10:51 AM 91.4 °F 93.2 °F 64.4 °F 41% 30.07 in 10.0 mi Calm Calm - N/A   Clear
11:49 AM 95.0 °F 96.0 °F 62.6 °F 34% 30.06 in 10.0 mi NE 4.6 mph - N/A   Clear
12:52 PM 96.8 °F 98.0 °F 62.6 °F 32% 30.05 in 10.0 mi NE 4.6 mph - N/A   Scattered Clouds
1:50 PM 98.6 °F 99.4 °F 60.8 °F 29% 30.03 in 10.0 mi NNE 4.6 mph - N/A   Mostly Cloudy
2:48 PM 98.6 °F 100.0 °F 62.6 °F 30% 30.02 in 10.0 mi SE 5.8 mph - N/A   Mostly Cloudy
3:48 PM 100.4 °F 100.2 °F 59.0 °F 25% 29.98 in 10.0 mi North 4.6 mph - N/A   Mostly Cloudy
4:53 PM 100.4 °F 99.7 °F 57.2 °F 24% 29.97 in 10.0 mi East 9.2 mph - N/A   Scattered Clouds
5:49 PM 100.4 °F 98.8 °F 55.4 °F 22% 29.96 in 10.0 mi ENE 10.4 mph - N/A   Scattered Clouds
6:48 PM 98.6 °F 97.6 °F 57.2 °F 25% 29.96 in 10.0 mi ENE 17.3 mph - N/A   Partly Cloudy
7:55 PM 93.2 °F 92.6 °F 59.4 °F 32% 29.98 in 10.0 mi East 5.8 mph - N/A   Clear
8:15 PM 92.3 °F 92.0 °F 60.1 °F 34% 29.99 in 10.0 mi East 4.6 mph - N/A   Clear
8:35 PM 91.6 °F 91.3 °F 60.1 °F 35% 30.00 in 10.0 mi East 4.6 mph - N/A   Clear
8:55 PM 90.7 °F 90.7 °F 61.2 °F 37% 30.01 in 10.0 mi East 4.6 mph - N/A   Clear
9:15 PM 89.4 °F 89.5 °F 61.3 °F 39% 30.02 in 10.0 mi East 5.8 mph - N/A   Clear
9:35 PM 89.6 °F 89.8 °F 61.7 °F 39% 30.04 in 10.0 mi East 6.9 mph - N/A   Clear
9:55 PM 88.9 °F 89.4 °F 62.2 °F 41% 30.04 in 10.0 mi ESE 5.8 mph - N/A   Clear
10:15 PM 88.9 °F 90.0 °F 63.5 °F 43% 30.04 in 10.0 mi SE 8.1 mph - N/A   Clear
10:35 PM 88.3 °F 89.9 °F 64.2 °F 45% 30.05 in 10.0 mi SE 6.9 mph - N/A   Clear
10:55 PM 87.1 °F 88.6 °F 64.6 °F 47% 30.05 in 10.0 mi SE 4.6 mph - N/A   Clear
11:15 PM 86.0 °F 87.9 °F 65.1 °F 50% 30.06 in 10.0 mi SE 4.6 mph - N/A   Clear
11:35 PM 85.3 °F 87.4 °F 65.7 °F 52% 30.06 in 10.0 mi SSE 4.6 mph - N/A   Clear
11:55 PM 84.4 °F 86.6 °F 66.2 °F 54% 30.07 in 10.0 mi SSE 5.8 mph - N/A   Clear